Regional Weather Roundup
Issued by NWS

Home | Current Version | Previous Version | Graphics & Text | Print | Product List | Glossary On
Versions: 1 2 3 4 5 6 7 8 9 10 11 12 13 14 15 16 17 18 19 20 21 22 23 24 25 26 27 28 29 30 31 32 33 34 35 36 37 38 39 40 41 42 43 44 45 46 47 48 49 50
000
ASUS45 KCYS 181910
RWRWY

WYOMING REGIONAL WEATHER ROUNDUP
NATIONAL WEATHER SERVICE CHEYENNE WY
1200 PM MST SAT FEB 18 2017

NOTE:  "FAIR" INDICATES FEW OR NO CLOUDS BELOW 12,000 FEET
WITH NO SIGNIFICANT WEATHER AND/OR OBSTRUCTIONS TO VISIBILITY.

WYZ001-182000-
YELLOWSTONE NATIONAL PARK

CITY           SKY/WX    TMP DP  RH WIND       PRES   REMARKS
LK YELLOWSTONE   N/A     32  31  96 CALM      29.69S
W YELLOWSTONE  NOT AVBL

$$
WYZ002>013-054>058-071-098>099-182000-
NORTHERN WYOMING

CITY           SKY/WX    TMP DP  RH WIND       PRES   REMARKS
JACKSON        PTSUNNY   34  32  93 SE12      29.69F WCI  25
CODY           FAIR      49  26  41 S7        29.59F
GREYBULL       FAIR      42  33  70 CALM      29.59F
WORLAND        FAIR      38  35  89 CALM      29.59F
SHERIDAN       FAIR      47  29  49 SE10      29.58F
BUFFALO        FAIR      50  29  44 N5        29.60F
GILLETTE       FAIR      58  31  35 SW17      29.59F
HULETT         FAIR      55  32  41 SW16G23   29.61S
NEWCASTLE      FAIR      55  30  38 SW15      29.66F

$$
WYZ014>020-022>026-101>103-182000-
CENTRAL WYOMING

CITY           SKY/WX    TMP DP  RH WIND       PRES   REMARKS
BIG PINEY      PTSUNNY   32  28  85 E5        29.74F WCI  27
PINEDALE       LGT SNOW  32  32 100 E7        29.75F WCI  26
DUBOIS         MOCLDY    41  28  60 NW16G26   29.64F
LANDER         FAIR      43  28  55 N5        29.62F
RIVERTON       FAIR      40  31  70 N5        29.64F
CASPER         LGT RAIN  55  30  38 SW26G40   29.66F
DOUGLAS        FAIR      60  27  28 W23G29    29.69S

$$
WYZ021-027>030-104>119-182000-
SOUTHERN WYOMING

CITY           SKY/WX    TMP DP  RH WIND       PRES   REMARKS
EVANSTON       PTSUNNY   38  28  67 E6        29.70F WCI  33
KEMMERER         N/A     41  32  70 N8        29.73S
FORT BRIDGER   FAIR      37  30  77 SE3       29.75F
ROCK SPRINGS   FAIR      42  29  59 SW21      29.72S
DIXON            N/A     50  30  45 SW15      29.81F
RAWLINS        FAIR      48  28  46 SW25G36   29.74F
SARATOGA       MOCLDY    50  27  40 S15G26    29.77F
LARAMIE        FAIR      53  23  31 SW23G29   29.74F
CHEYENNE       FAIR      56  20  24 S15G24    29.74F
TORRINGTON     FAIR      60  21  22 E5        29.69F
PINE BLUFFS    FAIR      55  21  26 S5        29.74F

$$



USA.gov is the U.S. government's official web portal to all federal, state and local government web resources and services.